KI6IKQ Weather Reports


time (UTC)temp
F
wind
direction
speed
knots
gust
knots
rain 1hr
in
rain 24hr
in
rain mn
in
humidity
%
barometer
mb
20260506230003 79 298 3.5 11.3 0.00 0.01 0.00 51 1016.8
20260506225403 79 296 2.6 7.0 0.00 0.01 0.00 53 1016.8
20260506224503 78 313 3.5 8.7 0.00 0.01 0.00 53 1016.9
20260506223603 78 342 4.3 10.4 0.00 0.01 0.00 53 1017.0
20260506222703 78 323 2.6 7.8 0.00 0.01 0.00 52 1017.2
20260506221803 78 336 3.5 8.7 0.00 0.01 0.00 52 1017.3
20260506220903 78 333 3.5 7.8 0.00 0.01 0.00 53 1017.6
20260506220003 78 334 3.5 7.8 0.00 0.01 0.00 54 1017.7
20260506215403 77 356 2.6 7.0 0.00 0.01 0.00 53 1017.7
20260506214503 77 309 3.5 8.7 0.00 0.01 0.00 53 1017.9
20260506213603 77 323 2.6 7.0 0.00 0.01 0.00 54 1018.0
20260506212703 77 343 2.6 7.8 0.00 0.01 0.00 53 1018.0
20260506211803 76 299 2.6 7.0 0.00 0.01 0.00 55 1018.1
20260506210903 76 329 2.6 7.8 0.00 0.01 0.00 54 1018.1
20260506210003 76 339 2.6 7.8 0.00 0.01 0.00 53 1018.2
20260506205403 76 330 1.7 7.0 0.00 0.01 0.00 55 1018.3
20260506204503 75 327 2.6 7.8 0.00 0.01 0.00 54 1018.6
20260506203603 75 327 3.5 8.7 0.00 0.01 0.00 57 1018.7
20260506202703 74 323 2.6 7.0 0.00 0.01 0.00 56 1018.9
20260506201803 74 329 2.6 7.0 0.00 0.01 0.00 58 1019.0
20260506200903 73 343 3.5 7.8 0.00 0.01 0.00 57 1019.1
20260506200003 73 336 3.5 7.8 0.00 0.01 0.00 57 1019.1
20260506195403 73 331 2.6 7.8 0.00 0.01 0.00 56 1019.2
20260506194503 73 12 2.6 7.0 0.00 0.01 0.00 54 1019.2
20260506193603 73 28 1.7 5.2 0.00 0.01 0.00 57 1019.2
20260506192703 73 342 2.6 7.0 0.00 0.01 0.00 58 1019.3
20260506191803 73 354 2.6 6.1 0.00 0.01 0.00 59 1019.3
20260506190903 73 337 3.5 7.8 0.00 0.01 0.00 58 1019.5
20260506190024 73 335 2.6 7.0 0.00 0.01 0.00 58 1019.6
20260506185424 72 329 2.6 5.2 0.00 0.01 0.00 59 1019.6
20260506184524 72 313 2.6 7.0 0.00 0.01 0.00 61 1019.7
20260506183624 72 336 2.6 7.8 0.00 0.01 0.00 60 1019.7
20260506182724 72 320 2.6 7.8 0.00 0.01 0.00 61 1019.8
20260506181803 71 317 2.6 7.8 0.00 0.01 0.00 63 1019.8
20260506180903 71 337 2.6 5.2 0.00 0.01 0.00 62 1019.8
20260506180004 70 308 2.6 7.0 0.00 0.01 0.00 63 1019.8
20260506175424 70 288 2.6 7.0 0.00 0.01 0.00 64 1019.9
20260506174503 70 287 2.6 7.0 0.00 0.01 0.00 64 1019.9
20260506173603 69 335 2.6 4.3 0.00 0.01 0.00 65 1020.0
20260506172703 69 314 2.6 7.0 0.00 0.01 0.00 66 1019.9
20260506171803 68 285 2.6 7.0 0.00 0.01 0.00 68 1019.9
20260506170903 68 295 2.6 7.0 0.00 0.01 0.00 67 1020.1
20260506170003 67 290 2.6 5.2 0.00 0.01 0.00 69 1020.1
20260506165403 67 282 2.6 5.2 0.00 0.01 0.00 69 1020.0
20260506164503 66 311 1.7 5.2 0.00 0.01 0.00 72 1020.0
20260506163603 65 292 2.6 7.0 0.00 0.01 0.00 74 1020.0
20260506162724 64 294 2.6 7.0 0.00 0.01 0.00 76 1019.9
20260506161824 63 280 2.6 5.2 0.00 0.01 0.00 79 1020.0
20260506160924 62 274 1.7 6.1 0.00 0.01 0.00 80 1020.0
20260506160024 60 282 1.7 6.1 0.00 0.01 0.00 83 1020.1
20260506155424 60 281 1.7 6.1 0.00 0.01 0.00 83 1020.0
20260506154503 59 281 1.7 3.5 0.00 0.01 0.00 83 1020.1
20260506153603 58 245 1.7 3.5 0.00 0.01 0.00 84 1020.1
20260506152703 58 225 0.9 2.6 0.00 0.01 0.00 85 1020.1
20260506151803 58 286 0.9 3.5 0.00 0.01 0.00 86 1020.0
20260506150903 57 301 0.0 1.7 0.00 0.01 0.00 86 1020.1
20260506150003 57 301 0.0 2.6 0.00 0.01 0.00 87 1020.1
20260506145403 57 301 0.0 1.7 0.00 0.01 0.00 88 1020.1
20260506144503 57 301 0.0 1.7 0.00 0.01 0.00 88 1020.2
20260506143603 56 301 0.0 2.6 0.00 0.01 0.00 87 1020.1
20260506142703 56 302 0.9 2.6 0.00 0.01 0.00 88 1020.0
20260506141803 56 307 0.9 2.6 0.00 0.01 0.00 88 1020.0
20260506140903 56 316 0.9 3.5 0.00 0.01 0.00 88 1019.9
20260506140003 55 303 0.9 3.5 0.00 0.01 0.00 89 1019.8
20260506135403 55 303 0.9 3.5 0.00 0.01 0.00 89 1019.7
20260506134503 55 139 0.9 3.5 0.00 0.01 0.00 89 1019.6
20260506133603 55 143 0.0 1.7 0.00 0.01 0.00 89 1019.5
20260506132703 55 0 0.0 0.0 0.00 0.01 0.00 89 1019.5
20260506131803 55 0 0.0 0.0 0.00 0.01 0.00 89 1019.4
20260506130903 55 0 0.0 0.0 0.00 0.01 0.00 89 1019.5
20260506130003 55 0 0.0 0.0 0.00 0.01 0.00 89 1019.4
20260506125403 55 0 0.0 0.0 0.00 0.01 0.00 89 1019.4
20260506124524 55 0 0.0 0.0 0.00 0.01 0.00 89 1019.4
20260506123603 55 0 0.0 0.0 0.00 0.01 0.00 89 1019.2
20260506122703 55 0 0.0 0.0 0.00 0.01 0.00 89 1019.1
20260506121803 54 312 0.0 0.9 0.00 0.01 0.00 89 1019.1
20260506120903 54 312 0.0 1.7 0.00 0.01 0.00 90 1019.1
20260506120004 54 312 0.0 1.7 0.00 0.01 0.00 90 1019.0
20260506115403 54 312 0.0 1.7 0.00 0.01 0.00 89 1019.0
20260506114503 54 312 0.0 0.9 0.00 0.01 0.00 89 1019.0
20260506113603 54 312 0.0 0.9 0.00 0.01 0.00 89 1019.0
20260506112703 53 0 0.0 0.0 0.00 0.01 0.00 89 1018.9
20260506111806 53 0 0.0 0.0 0.00 0.01 0.00 89 1018.9
20260506110903 54 0 0.0 0.0 0.00 0.01 0.00 89 1018.6
20260506110003 54 0 0.0 0.0 0.00 0.01 0.00 89 1018.6
20260506105403 54 312 0.9 1.7 0.00 0.01 0.00 89 1018.6
20260506104503 54 312 0.9 3.5 0.00 0.01 0.00 89 1018.5
20260506103603 54 312 0.9 2.6 0.00 0.01 0.00 89 1018.5
20260506102703 53 312 0.9 2.6 0.00 0.01 0.00 89 1018.5
20260506101803 53 313 0.0 1.7 0.00 0.01 0.00 88 1018.5
20260506100903 53 312 0.9 3.5 0.00 0.01 0.00 88 1018.3
20260506100003 53 301 0.9 3.5 0.00 0.01 0.00 88 1018.3
20260506095403 53 299 0.9 3.5 0.00 0.01 0.00 88 1018.3
20260506094503 53 318 0.0 1.7 0.00 0.01 0.00 88 1018.0
20260506093603 53 313 0.9 3.5 0.00 0.01 0.00 88 1018.0
20260506092724 53 294 0.9 3.5 0.00 0.01 0.00 88 1017.9
20260506091803 53 294 0.0 1.7 0.00 0.01 0.00 88 1018.0
20260506090903 53 294 0.0 0.9 0.00 0.01 0.00 88 1018.0
20260506090024 53 294 0.0 1.7 0.00 0.01 0.00 88 1018.1
20260506085403 53 294 0.0 0.9 0.00 0.01 0.00 88 1018.1
20260506084503 52 294 0.0 0.9 0.00 0.01 0.00 87 1018.3
20260506083624 52 0 0.0 0.0 0.00 0.01 0.00 86 1018.3
20260506082703 53 0 0.0 0.0 0.00 0.01 0.00 85 1018.4
20260506081824 53 0 0.0 0.0 0.00 0.01 0.00 85 1018.5
20260506080903 53 0 0.0 0.0 0.00 0.01 0.00 85 1018.4
20260506072703 54 294 0.0 0.9 0.00 0.05 0.00 85 1018.1
20260506071803 55 294 0.0 2.6 0.00 0.05 0.00 85 1018.1
20260506070903 55 289 0.9 2.6 0.00 0.05 0.00 85 1017.8
20260506061824 55 292 1.7 3.5 0.00 0.05 0.05 85 1017.3
20260506060924 55 265 0.9 2.6 0.00 0.05 0.05 84 1017.1
20260506050924 57 250 0.9 3.5 0.00 0.05 0.05 81 1016.6
20260506044503 58 249 0.9 2.6 0.00 0.05 0.05 80 1016.5
20260506043603 58 249 0.0 2.6 0.00 0.05 0.05 79 1016.3
20260506042703 59 249 0.0 1.7 0.00 0.05 0.05 79 1016.1
20260506041803 59 250 0.9 2.6 0.00 0.05 0.05 79 1016.1
20260506040903 59 250 0.9 2.6 0.00 0.05 0.05 78 1016.0
20260506040003 60 250 0.9 2.6 0.00 0.05 0.05 77 1015.9
20260506035424 60 250 0.9 3.5 0.00 0.05 0.05 77 1015.9
20260506034503 61 250 0.9 3.5 0.00 0.05 0.05 76 1015.7
20260506033603 61 249 0.9 3.5 0.00 0.05 0.05 76 1015.6
20260506032703 61 248 0.9 4.3 0.00 0.05 0.05 75 1015.6
20260506031803 62 243 0.9 4.3 0.00 0.05 0.05 75 1015.5
20260506030903 62 249 0.9 3.5 0.00 0.05 0.05 75 1015.2
20260506030003 62 272 1.7 4.3 0.00 0.05 0.05 74 1015.2
20260506025403 62 265 1.7 3.5 0.00 0.05 0.05 74 1015.2
20260506024503 62 274 1.7 6.1 0.01 0.05 0.05 74 1015.1
20260506023603 63 264 1.7 5.2 0.01 0.05 0.05 73 1015.0
20260506022703 63 250 1.7 5.2 0.01 0.05 0.05 73 1014.9
20260506021803 63 245 1.7 5.2 0.01 0.05 0.05 72 1014.8
20260506020903 63 242 1.7 3.5 0.01 0.05 0.05 72 1014.8
20260506020024 64 251 1.7 6.1 0.01 0.05 0.05 71 1014.8
20260506015403 64 270 2.6 7.8 0.01 0.05 0.05 71 1014.7
20260506014503 64 275 2.6 6.1 0.00 0.04 0.04 71 1014.7
20260506013603 64 253 1.7 6.1 0.00 0.04 0.04 71 1014.8
20260506012703 64 270 1.7 5.2 0.00 0.04 0.04 72 1014.8
20260506011803 64 254 1.7 4.3 0.00 0.04 0.04 71 1014.8
20260506010903 64 261 2.6 6.1 0.00 0.04 0.04 71 1014.8
20260506010003 65 265 1.7 6.1 0.00 0.04 0.04 71 1015.0
20260506005403 65 270 1.7 6.1 0.00 0.04 0.04 70 1015.0
20260506004503 65 255 2.6 6.1 0.00 0.04 0.04 70 1015.0
20260506003603 65 254 1.7 6.1 0.00 0.04 0.04 69 1015.0
20260506002703 66 236 1.7 4.3 0.00 0.04 0.04 69 1014.9
20260506001803 66 236 1.7 7.8 0.00 0.04 0.04 70 1014.9
20260506000903 65 230 1.7 7.0 0.00 0.04 0.04 70 1014.7
20260506000003 65 218 1.7 4.3 0.00 0.04 0.04 71 1014.6
20260505235403 64 235 1.7 3.5 0.00 0.04 0.04 72 1014.7
20260505234503 64 233 1.7 7.0 0.00 0.04 0.04 72 1014.8
20260505233606 64 268 2.6 7.0 0.00 0.04 0.04 73 1014.8
20260505232703 64 255 1.7 6.1 0.00 0.04 0.04 72 1014.8
20260505231803 64 256 1.7 7.0 0.00 0.04 0.04 73 1014.8
20260505230903 64 258 1.7 5.2 0.00 0.04 0.04 74 1014.8